Weather History for KPEQ - August, 2013

Change the Weather History Date:

Sunday, August 25, 2013

  Actual Average Record
Temperature  
Mean Temperature 81 °F -  
Max Temperature 97 °F 96 °F 109 °F (1973)
Min Temperature 65 °F 65 °F 56 °F (1916)
Cooling Degree Days 16    
Growing Degree Days 31 (Base 50)    
Moisture  
Dew Point 57 °F    
Average Humidity 45    
Maximum Humidity 74    
Minimum Humidity 24    
Precipitation  
Precipitation 0.00 in - - ()
Sea Level Pressure  
Sea Level Pressure 30.11 in    
Wind  
Wind Speed 7 mph (ESE)    
Max Wind Speed 17 mph    
Max Gust Speed 28 mph    
Visibility 10 miles    
Events      
Averages and records for this station are not official NWS values.
T = Trace of Precipitation, MM = Missing Value Source: NWS Daily Summary

Daily Weather History Graph

Daily Weather History Graph

Search for Another Location

Airport or City:

Trip Planner

Search our weather history database for the weather conditions in past years. The results will help you decide how hot, cold, wet, or windy it might be!

Date:

Astronomy

Aug. 25, 2013 Rise Set
Actual Time 7:25 AM CDT 8:25 PM CDT
Civil Twilight 7:00 AM CDT 8:50 PM CDT
Nautical Twilight 6:31 AM CDT 9:20 PM CDT
Astronomical Twilight 6:00 AM CDT 9:50 PM CDT
Moon 11:22 PM CDT (8/25) 12:07 PM CDT (8/25)
Length of Visible Light 13h 49m
Length of Day
12h 59m
Waning Gibbous, 75% of the Moon is Illuminated
Aug 25
Waning Gibbous
Aug 28
Last Quarter
Sep 5
New
Sep 12
First Quarter
Sep 19
Full

Hourly Weather History & Observations

Time (CDT) Temp. Heat Index Dew Point Humidity Pressure Visibility Wind Dir Wind Speed Gust Speed Precip Events Conditions
12:15 AM 74.3 °F - 54.9 °F 51% 30.09 in 10.0 mi SE 6.9 mph - N/A   Clear
12:35 AM 73.8 °F - 54.5 °F 51% 30.09 in 10.0 mi ESE 5.8 mph - N/A   Clear
12:55 AM 73.6 °F - 54.9 °F 52% 30.10 in 10.0 mi East 9.2 mph - N/A   Clear
1:15 AM 72.9 °F - 54.1 °F 52% 30.10 in 10.0 mi East 4.6 mph - N/A   Clear
1:35 AM 72.5 °F - 54.0 °F 52% 30.10 in 10.0 mi SE 3.5 mph - N/A   Clear
1:55 AM 71.1 °F - 55.4 °F 58% 30.10 in 10.0 mi SSW 3.5 mph - N/A   Clear
2:15 AM 71.4 °F - 55.4 °F 57% 30.10 in 10.0 mi Calm Calm - N/A   Clear
2:35 AM 68.9 °F - 56.7 °F 65% 30.10 in 10.0 mi Calm Calm - N/A   Clear
2:55 AM 70.5 °F - 56.7 °F 61% 30.10 in 10.0 mi Calm Calm - N/A   Clear
3:15 AM 70.2 °F - 56.3 °F 61% 30.11 in 10.0 mi Calm Calm - N/A   Clear
3:35 AM 71.6 °F - 55.6 °F 57% 30.11 in 10.0 mi Calm Calm - N/A   Clear
3:55 AM 70.3 °F - 55.4 °F 59% 30.10 in 10.0 mi SSE 5.8 mph - N/A   Clear
4:15 AM 69.4 °F - 55.6 °F 61% 30.10 in 10.0 mi Calm Calm - N/A   Clear
4:35 AM 70.7 °F - 55.6 °F 59% 30.10 in 10.0 mi Calm Calm - N/A   Clear
4:55 AM 68.5 °F - 55.8 °F 64% 30.10 in 10.0 mi ENE 4.6 mph - N/A   Clear
5:15 AM 67.5 °F - 55.8 °F 66% 30.11 in 10.0 mi NE 3.5 mph - N/A   Clear
5:35 AM 67.5 °F - 55.6 °F 66% 30.11 in 10.0 mi ENE 4.6 mph - N/A   Clear
5:55 AM 68.0 °F - 56.3 °F 66% 30.12 in 10.0 mi Calm Calm - N/A   Clear
6:15 AM 67.6 °F - 56.3 °F 67% 30.12 in 10.0 mi East 4.6 mph - N/A   Clear
6:35 AM 67.1 °F - 56.3 °F 68% 30.13 in 10.0 mi East 3.5 mph - N/A   Clear
6:55 AM 66.0 °F - 56.5 °F 71% 30.14 in 10.0 mi Calm Calm - N/A   Clear
7:15 AM 66.6 °F - 56.7 °F 70% 30.14 in 10.0 mi Calm Calm - N/A   Clear
7:35 AM 65.1 °F - 56.7 °F 74% 30.16 in 10.0 mi ENE 8.1 mph - N/A   Clear
7:55 AM 67.1 °F - 58.1 °F 73% 30.16 in 10.0 mi ENE 9.2 mph - N/A   Clear
8:15 AM 69.8 °F - 59.0 °F 68% 30.16 in 10.0 mi ENE 8.1 mph - N/A   Clear
8:35 AM 71.4 °F - 59.4 °F 66% 30.16 in 10.0 mi East 5.8 mph - N/A   Clear
8:55 AM 74.5 °F - 59.9 °F 60% 30.17 in 10.0 mi East 8.1 mph - N/A   Clear
9:15 AM 74.3 °F - 59.5 °F 60% 30.17 in 10.0 mi East 5.8 mph - N/A   Clear
9:35 AM 76.3 °F - 59.7 °F 56% 30.18 in 10.0 mi ESE 5.8 mph - N/A   Clear
9:55 AM 79.7 °F - 59.7 °F 50% 30.18 in 10.0 mi ESE 4.6 mph - N/A   Clear
10:15 AM 81.3 °F 81.7 °F 59.4 °F 47% 30.18 in 10.0 mi SE 4.6 mph - N/A   Clear
10:35 AM 82.2 °F 82.4 °F 59.4 °F 46% 30.19 in 10.0 mi SSE 6.9 mph - N/A   Clear
10:55 AM 84.2 °F 84.0 °F 59.2 °F 43% 30.18 in 10.0 mi East 3.5 mph - N/A   Clear
11:15 AM 87.1 °F 86.3 °F 58.8 °F 38% 30.18 in 10.0 mi East 8.1 mph - N/A   Clear
11:35 AM 88.9 °F 88.0 °F 58.6 °F 36% 30.17 in 10.0 mi SE 9.2 mph 16.1 mph N/A   Clear
11:55 AM 90.0 °F 88.8 °F 58.3 °F 34% 30.17 in 10.0 mi ESE 15.0 mph 18.4 mph N/A   Clear
12:15 PM 91.0 °F 89.7 °F 57.7 °F 32% 30.16 in 10.0 mi East 10.4 mph 18.4 mph N/A   Scattered Clouds
12:35 PM 91.0 °F 90.0 °F 57.9 °F 33% 30.16 in 10.0 mi SE 11.5 mph 16.1 mph N/A   Clear
12:55 PM 92.3 °F 91.0 °F 57.9 °F 31% 30.15 in 10.0 mi ESE 9.2 mph 18.4 mph N/A   Clear
1:15 PM 92.3 °F 91.3 °F 58.1 °F 32% 30.14 in 10.0 mi ESE 15.0 mph 19.6 mph N/A   Scattered Clouds
1:35 PM 91.6 °F 90.4 °F 58.1 °F 32% 30.13 in 10.0 mi East 12.7 mph 16.1 mph N/A   Scattered Clouds
1:55 PM 93.0 °F 92.0 °F 57.9 °F 31% 30.12 in 10.0 mi ESE 13.8 mph 20.7 mph N/A   Scattered Clouds
2:15 PM 94.3 °F 93.0 °F 57.9 °F 29% 30.12 in 10.0 mi East 12.7 mph 27.6 mph N/A   Scattered Clouds
2:35 PM 91.9 °F 90.6 °F 57.2 °F 31% 30.12 in 10.0 mi East 9.2 mph 21.9 mph N/A   Clear
2:55 PM 94.3 °F 93.0 °F 57.2 °F 29% 30.11 in 10.0 mi East 16.1 mph 24.2 mph N/A   Scattered Clouds
3:15 PM 96.1 °F 94.5 °F 56.5 °F 26% 30.10 in 10.0 mi East 15.0 mph 24.2 mph N/A   Scattered Clouds
3:35 PM 95.9 °F 94.6 °F 56.8 °F 27% 30.09 in 10.0 mi ESE 9.2 mph 19.6 mph N/A   Scattered Clouds
3:55 PM 97.0 °F 95.3 °F 55.9 °F 25% 30.09 in 10.0 mi ESE 16.1 mph 23.0 mph N/A   Scattered Clouds
4:15 PM 97.2 °F 95.2 °F 55.2 °F 24% 30.07 in 10.0 mi ESE 17.3 mph - N/A   Scattered Clouds
4:35 PM 96.6 °F 94.8 °F 55.8 °F 25% 30.07 in 10.0 mi ESE 16.1 mph 19.6 mph N/A   Scattered Clouds
4:55 PM 96.1 °F 94.1 °F 54.7 °F 25% 30.07 in 10.0 mi East 15.0 mph 20.7 mph N/A   Clear
5:15 PM 97.0 °F 95.0 °F 54.5 °F 24% 30.06 in 10.0 mi East 15.0 mph 23.0 mph N/A   Scattered Clouds
5:35 PM 96.1 °F 94.1 °F 54.9 °F 25% 30.06 in 10.0 mi East 13.8 mph 20.7 mph N/A   Scattered Clouds
5:55 PM 94.8 °F 92.5 °F 54.1 °F 25% 30.05 in 10.0 mi SE 13.8 mph 20.7 mph N/A   Scattered Clouds
6:15 PM 94.5 °F 92.1 °F 53.6 °F 25% 30.05 in 10.0 mi SE 15.0 mph 20.7 mph N/A   Scattered Clouds
6:35 PM 94.3 °F 91.8 °F 53.6 °F 25% 30.05 in 10.0 mi SE 15.0 mph 19.6 mph N/A   Scattered Clouds
6:55 PM 94.1 °F 92.2 °F 55.2 °F 27% 30.05 in 10.0 mi East 16.1 mph 23.0 mph N/A   Clear
7:15 PM 93.2 °F 91.0 °F 54.9 °F 27% 30.04 in 10.0 mi East 15.0 mph - N/A   Clear
7:35 PM 92.1 °F 90.0 °F 54.5 °F 28% 30.05 in 10.0 mi East 16.1 mph - N/A   Clear
7:55 PM 91.0 °F 88.9 °F 54.3 °F 29% 30.05 in 10.0 mi East 11.5 mph 18.4 mph N/A   Clear
8:15 PM 89.6 °F 87.5 °F 54.0 °F 30% 30.05 in 10.0 mi East 9.2 mph - N/A   Clear
8:35 PM 88.2 °F 86.3 °F 55.0 °F 32% 30.06 in 10.0 mi East 13.8 mph - N/A   Clear
8:55 PM 86.9 °F 85.3 °F 55.8 °F 34% 30.07 in 10.0 mi East 10.4 mph - N/A   Clear
9:15 PM 86.0 °F 84.5 °F 55.6 °F 35% 30.07 in 10.0 mi East 10.4 mph - N/A   Clear
9:35 PM 85.6 °F 84.3 °F 55.9 °F 36% 30.09 in 10.0 mi East 17.3 mph 20.7 mph N/A   Clear
9:55 PM 85.5 °F 84.5 °F 57.0 °F 38% 30.10 in 10.0 mi ESE 13.8 mph - N/A   Clear
10:15 PM 84.2 °F 83.5 °F 57.7 °F 40% 30.11 in 10.0 mi ESE 11.5 mph - N/A   Clear
10:35 PM 83.5 °F 83.1 °F 58.1 °F 42% 30.12 in 10.0 mi ESE 10.4 mph - N/A   Clear
10:55 PM 82.8 °F 82.5 °F 58.1 °F 43% 30.12 in 10.0 mi ESE 9.2 mph - N/A   Clear
11:15 PM 81.5 °F 81.6 °F 58.1 °F 45% 30.13 in 10.0 mi ESE 6.9 mph - N/A   Clear
11:35 PM 79.9 °F - 58.1 °F 47% 30.13 in 10.0 mi East 5.8 mph - N/A   Clear
11:55 PM 78.3 °F - 58.1 °F 50% 30.13 in 10.0 mi ESE 5.8 mph - N/A   Clear